Weather History for Thomaston, GA

Change the Weather History Date:

Friday, August 16, 2013

  Actual Average (KFFC) Record (KFFC)
Temperature  
Mean Temperature 65 °F 79 °F  
Max Temperature 68 °F 89 °F 100 °F (2007)
Min Temperature 62 °F 68 °F 61 °F (1996)
Degree Days  
Heating Degree Days 0 0  
Month to date heating degree days 0  
Since 1 June heating degree days 1  
Since 1 July heating degree days 0  
Cooling Degree Days 0 14  
Month to date cooling degree days 226  
Year to date cooling degree days 1186  
Since 1 June cooling degree days 996  
Growing Degree Days 15 (Base 50)    
Moisture  
Dew Point 60 °F    
Average Humidity 83    
Maximum Humidity 88    
Minimum Humidity 73    
Precipitation  
Precipitation 0.00 in 0.16 in 1.18 in (2003)
Month to date precipitation 2.07  
Year to date precipitation 32.48  
Sea Level Pressure  
Sea Level Pressure 30.07 in    
Wind  
Wind Speed 7 mph (ENE)    
Max Wind Speed 12 mph    
Max Gust Speed 17 mph    
Visibility 7 miles    
Events Rain    
T = Trace of Precipitation, MM = Missing Value Source: NWS Daily Summary

Daily Weather History Graph

Daily Weather History Graph

Search for Another Location

Airport:

Trip Planner

Search our weather history database for the weather conditions in past years. The results will help you decide how hot, cold, wet, or windy it might be!

Date:

Astronomy

Aug. 16, 2013 Rise Set
Actual Time 7:01 AM EDT 8:20 PM EDT
Civil Twilight 6:35 AM EDT 8:46 PM EDT
Nautical Twilight 6:03 AM EDT 9:17 PM EDT
Astronomical Twilight 5:31 AM EDT 9:50 PM EDT
Moon 4:32 PM EDT (8/16) 2:08 AM EDT (8/16)
Length of Visible Light 14h 11m
Length of Day
13h 19m
Waxing Gibbous, 74% of the Moon is Illuminated
Aug 16
Waxing Gibbous
Aug 20
Full
Aug 28
Last Quarter
Sep 5
New
Sep 12
First Quarter

Hourly Weather History & Observations

Time (EDT) Temp. Dew Point Humidity Pressure Visibility Wind Dir Wind Speed Gust Speed Precip Events Conditions
12:15 AM 64.4 °F 59.0 °F 83% 30.09 in 10.0 mi East 8.1 mph 17.3 mph N/A   Light Drizzle
12:35 AM 64.4 °F 59.0 °F 83% 30.08 in 10.0 mi ENE 6.9 mph - N/A   Overcast
12:55 AM 64.4 °F 59.0 °F 83% 30.09 in 10.0 mi East 5.8 mph - N/A   Overcast
1:15 AM 64.4 °F 59.0 °F 83% 30.08 in 10.0 mi East 9.2 mph - N/A   Overcast
1:55 AM 62.6 °F 59.0 °F 88% 30.07 in 3.0 mi ENE 10.4 mph 17.3 mph N/A Rain Heavy Rain
2:15 AM 62.6 °F 59.0 °F 88% 30.06 in 7.0 mi East 3.5 mph - N/A Rain Light Rain
2:35 AM 62.6 °F 59.0 °F 88% 30.05 in 7.0 mi East 6.9 mph - N/A Rain Rain
2:55 AM 62.6 °F 59.0 °F 88% 30.04 in 7.0 mi East 6.9 mph - N/A Rain Light Rain
3:15 AM 64.4 °F 59.0 °F 83% 30.04 in 7.0 mi East 6.9 mph - N/A   Light Drizzle
3:35 AM 64.4 °F 59.0 °F 83% 30.04 in 7.0 mi ENE 5.8 mph - N/A   Overcast
3:55 AM 64.4 °F 59.0 °F 83% 30.03 in 7.0 mi ENE 8.1 mph - N/A   Overcast
4:15 AM 64.4 °F 59.0 °F 83% 30.04 in 5.0 mi ENE 4.6 mph - N/A   Haze
4:35 AM 64.4 °F 59.0 °F 83% 30.03 in 4.0 mi ENE 6.9 mph - N/A   Haze
4:55 AM 64.4 °F 59.0 °F 83% 30.03 in 4.0 mi ENE 5.8 mph - N/A   Light Drizzle
5:15 AM 62.6 °F 59.0 °F 88% 30.03 in 5.0 mi ENE 5.8 mph - N/A   Overcast
5:35 AM 62.6 °F 59.0 °F 88% 30.04 in 3.0 mi ENE 5.8 mph - N/A Rain Rain
5:55 AM 62.6 °F 59.0 °F 88% 30.04 in 4.0 mi ENE 6.9 mph - N/A   Light Drizzle
6:15 AM 62.6 °F 59.0 °F 88% 30.04 in 3.0 mi ENE 5.8 mph - N/A   Heavy Drizzle
6:35 AM 62.6 °F 59.0 °F 88% 30.04 in 4.0 mi ENE 5.8 mph - N/A   Drizzle
6:55 AM 64.4 °F 59.0 °F 83% 30.05 in 5.0 mi ENE 5.8 mph - N/A   Drizzle
7:15 AM 64.4 °F 59.0 °F 83% 30.05 in 5.0 mi ENE 4.6 mph - N/A   Light Drizzle
7:35 AM 64.4 °F 59.0 °F 83% 30.05 in 7.0 mi ENE 6.9 mph - N/A   Overcast
7:55 AM 64.4 °F 60.8 °F 88% 30.05 in 10.0 mi ENE 6.9 mph - N/A   Overcast
8:15 AM 64.4 °F 60.8 °F 88% 30.06 in 10.0 mi ENE 5.8 mph - N/A   Overcast
8:35 AM 64.4 °F 60.8 °F 88% 30.06 in 10.0 mi ENE 5.8 mph - N/A   Overcast
8:55 AM 64.4 °F 60.8 °F 88% 30.07 in 7.0 mi ENE 6.9 mph - N/A   Overcast
9:15 AM 64.4 °F 60.8 °F 88% 30.08 in 3.0 mi NE 6.9 mph - N/A   Drizzle
9:35 AM 64.4 °F 60.8 °F 88% 30.08 in 2.5 mi ENE 6.9 mph - N/A   Light Drizzle
9:55 AM 64.4 °F 60.8 °F 88% 30.08 in 2.5 mi ENE 4.6 mph - N/A   Overcast
10:15 AM 64.4 °F 60.8 °F 88% 30.08 in 3.0 mi ENE 8.1 mph - N/A   Haze
10:35 AM 64.4 °F 60.8 °F 88% 30.09 in 4.0 mi ENE 6.9 mph - N/A   Haze
10:55 AM 64.4 °F 60.8 °F 88% 30.09 in 4.0 mi NE 8.1 mph - N/A   Haze
11:15 AM 64.4 °F 60.8 °F 88% 30.10 in 5.0 mi NE 10.4 mph - N/A   Haze
11:35 AM 64.4 °F 59.0 °F 83% 30.10 in 7.0 mi ENE 8.1 mph - N/A   Overcast
11:55 AM 64.4 °F 59.0 °F 83% 30.11 in 10.0 mi ENE 8.1 mph - N/A   Overcast
12:15 PM 64.4 °F 59.0 °F 83% 30.11 in 7.0 mi East 9.2 mph - N/A   Overcast
12:35 PM 64.4 °F 59.0 °F 83% 30.10 in 7.0 mi East 8.1 mph - N/A   Overcast
12:55 PM 66.2 °F 60.8 °F 83% 30.10 in 7.0 mi NE 6.9 mph - N/A   Overcast
1:15 PM 64.4 °F 59.0 °F 83% 30.09 in 7.0 mi ENE 9.2 mph - N/A   Overcast
1:35 PM 66.2 °F 59.0 °F 78% 30.09 in 10.0 mi ENE 10.4 mph 16.1 mph N/A   Overcast
1:55 PM 68.0 °F 59.0 °F 73% 30.08 in 10.0 mi ENE 10.4 mph - N/A   Overcast
2:15 PM 66.2 °F 59.0 °F 78% 30.08 in 10.0 mi NE 6.9 mph - N/A   Overcast
2:35 PM 68.0 °F 59.0 °F 73% 30.08 in 10.0 mi ENE 9.2 mph 16.1 mph N/A   Overcast
2:55 PM 66.2 °F 59.0 °F 78% 30.08 in 10.0 mi ENE 10.4 mph - N/A   Overcast
3:15 PM 66.2 °F 59.0 °F 78% 30.08 in 10.0 mi ENE 11.5 mph - N/A   Overcast
3:35 PM 68.0 °F 59.0 °F 73% 30.07 in 10.0 mi East 10.4 mph - N/A   Overcast
3:55 PM 68.0 °F 60.8 °F 78% 30.07 in 10.0 mi ENE 8.1 mph - N/A   Overcast
4:15 PM 68.0 °F 60.8 °F 78% 30.06 in 10.0 mi ENE 8.1 mph - N/A   Overcast
4:35 PM 68.0 °F 60.8 °F 78% 30.06 in 10.0 mi ENE 10.4 mph - N/A   Overcast
4:55 PM 68.0 °F 60.8 °F 78% 30.05 in 10.0 mi East 6.9 mph - N/A   Overcast
5:15 PM 68.0 °F 60.8 °F 78% 30.04 in 10.0 mi ENE 8.1 mph - N/A   Overcast
5:35 PM 68.0 °F 60.8 °F 78% 30.05 in 10.0 mi ENE 8.1 mph - N/A   Overcast
5:55 PM 68.0 °F 60.8 °F 78% 30.05 in 10.0 mi ENE 5.8 mph - N/A   Overcast
6:15 PM 68.0 °F 60.8 °F 78% 30.05 in 10.0 mi ENE 6.9 mph - N/A   Overcast
6:35 PM 68.0 °F 60.8 °F 78% 30.07 in 10.0 mi East 5.8 mph - N/A   Overcast
6:55 PM 68.0 °F 60.8 °F 78% 30.07 in 10.0 mi East 6.9 mph - N/A   Overcast
7:15 PM 68.0 °F 60.8 °F 78% 30.07 in 10.0 mi East 6.9 mph - N/A   Overcast
7:35 PM 68.0 °F 60.8 °F 78% 30.08 in 5.0 mi East 6.9 mph - N/A   Haze
7:55 PM 66.2 °F 60.8 °F 83% 30.08 in 3.0 mi ENE 4.6 mph - N/A   Haze
8:15 PM 66.2 °F 60.8 °F 83% 30.09 in 2.5 mi East 8.1 mph - N/A   Haze
8:35 PM 66.2 °F 60.8 °F 83% 30.10 in 4.0 mi ENE 5.8 mph - N/A   Haze
8:55 PM 66.2 °F 60.8 °F 83% 30.11 in 3.0 mi ENE 5.8 mph - N/A   Haze
9:15 PM 64.4 °F 60.8 °F 88% 30.11 in 3.0 mi ENE 5.8 mph - N/A   Overcast
9:35 PM 64.4 °F 60.8 °F 88% 30.11 in 4.0 mi ENE 5.8 mph - N/A   Overcast
9:55 PM 64.4 °F 60.8 °F 88% 30.11 in 4.0 mi East 6.9 mph - N/A   Overcast
10:15 PM 64.4 °F 60.8 °F 88% 30.12 in 3.0 mi East 6.9 mph - N/A   Overcast
10:35 PM 64.4 °F 60.8 °F 88% 30.12 in 3.0 mi East 5.8 mph - N/A   Overcast
10:55 PM 64.4 °F 60.8 °F 88% 30.12 in 4.0 mi ENE 4.6 mph - N/A   Overcast
11:15 PM 64.4 °F 60.8 °F 88% 30.12 in 5.0 mi ENE 5.8 mph - N/A   Haze
11:35 PM 64.4 °F 60.8 °F 88% 30.12 in 5.0 mi ENE 4.6 mph - N/A   Haze
11:55 PM 64.4 °F 60.8 °F 88% 30.11 in 5.0 mi ENE 6.9 mph - N/A   Haze